Location: Dal�� Lhota
(48.7500°N, 14.0167°E)
Time: 09:23:21
(UTC+00:00)

Explorer 7 - Pass Details

Date: 04 August 2021
Orbit: 484 x 676 km, 50.3° (Epoch: 21 September)

Event Time Altitude Azimuth Distance (km) Brightness Sun altitude
Rises 03:48:18 0° 240° (WSW) 2,544 - 0.1°
Exits shadow 03:48:20 - 240° (WSW) 2,533 9.5 0.1°
Reaches altitude 10° 03:50:27 10° 238° (WSW) 1,676 8.6 0.4°
Maximum altitude 03:54:11 63° 157° (SSE) 560 6.9 1.0°
Drops below altitude 10° 03:58:05 10° 76° (ENE) 1,748 11.5 1.6°
Sets 04:00:22 0° 73° (ENE) 2,668 13.0 1.9°
